Back to catalog

ARIANE 44LP+ R/B

AliveUNKNOWN
NORAD 22913·ROCKET BODY·🇫🇷 France

Launched Nov 20, 1993 from Guiana Space Centre

Loading…

Next Passes (next 24 hours)

TLE

FreshSource: Space-Track

Epoch: Sep 13, 2026, 23:55 UTC

1 22913U 93073C   26256.99657018  .00227338 -13538-4  12258-2 0  9995
2 22913   6.7327 214.1807 1214820 201.1506 153.3820 13.34692907725347

Track ARIANE 44LP+ R/B in real time with AllMySat

Download on the App Store